Tracking 22458 objects as of 2-Mar-2021
HD Live streaming from Space Station
objects crossing your sky now

CZ-4 DEB

Track CZ-4 DEB now!
10-day predictions


NORAD ID: 37609
Int'l Code: 1990-081CV
Perigee: 826.4 km
Apogee: 925.7 km
Inclination: 98.7 °
Period: 102.3 minutes
Semi major axis: 7247 km
RCS: 0.0032 m2 (small)
Launch date: September 3, 1990
Source: People's Republic of China (PRC)
Launch site: Taiyaun Space Center, China (TSC)

Note: This is SATELLITE DEBRIS
aabbcc
Your satellite tracking list
Your tracking list is empty




NASA's NSSDC Master Catalog

Two Line Element Set (TLE):
1 37609U 90081CV  21059.81839330  .00000101  00000-0  83690-4 0  9997
2 37609  98.7338  59.2822 0068522 137.0966 344.8843 14.07207355880473
Source of the keplerian elements: AFSPC